User: anonymous   Login
Location: Gollag?dem
(16.8053°N, 80.8024°E)
Time: 15:52:13
(UTC+00:00)
Language:

SeaSat 1 - Orbit

View from above orbital plane
View from above orbital plane
View from above satellite
View from above satellite

Ground track
Ground track

The orbit data is extracted from the following two-line orbital elements,

1 10967U 78064A   20293.07058374 -.00000077  00000-0  17604-4 0  9995
2 10967 108.0058 329.3169 0002846 251.9586 108.1249 14.43839975222662
Epoch (UTC): 19 October 2020 01:41:38
Eccentricity: 0.0002846
inclination: 108.0058°
perigee height: 744 km
apogee height: 748 km
right ascension of ascending node: 329.3169°
argument of perigee: 251.9586°
revolutions per day: 14.43839975
mean anomaly at epoch: 108.1249°
orbit number at epoch: 22266

The dashed part of the orbit path shows where the satellite is in the earth's shadow,  

DLR